Temp
14 15 16 17 19 19 20 21 21 22 23 23 25 25 26 27 29 29 27 34 34 34 32 32 30 31 30 29 32 33 28 29 30 30 29 29 28 29 27 25 26 25 23 22 20
13 15 16 17 18 19 20 20 21 22 23 23 24 25 26 27 27 25 36 35 33 33 33 33 32 32 30 30 31 29 27 31 32 31 30 29 28 27 25 24 23 22 22 21 20
12 13 14 16 17 19 20 20 21 22 23 23 24 25 26 27 25 31 35 35 33 33 33 32 33 32 32 32 30 29 30 33 32 32 31 29 29 28 25 23 23 21 21 21 21
11 12 12 14 16 17 19 20 21 22 23 23 24 25 26 27 30 34 34 34 34 34 32 33 33 32 31 33 33 32 33 34 33 32 31 30 28 26 26 25 24 23 22 21 21
11 11 12 13 15 17 18 19 21 22 22 23 23 24 25 24 26 33 33 33 34 33 32 33 32 32 33 34 34 34 33 32 32 31 31 30 28 27 24 24 24 24 23 22 22
11 12 12 13 15 17 18 19 21 22 22 22 23 23 22 23 31 32 32 32 33 32 33 33 33 34 33 33 33 34 33 32 31 31 29 27 26 26 24 24 24 23 22 22 22
11 11 12 13 15 17 18 20 21 22 22 22 22 21 20 24 31 32 32 32 32 33 32 35 35 34 33 33 34 32 32 31 30 30 29 28 26 25 25 25 24 24 24 24 23
11 11 11 12 15 17 18 20 22 22 23 23 21 19 19 28 30 31 32 32 33 34 34 36 36 34 32 31 30 30 27 29 32 30 30 28 24 25 26 25 25 25 25 24 24
11 11 12 13 14 17 18 21 23 23 23 22 21 20 21 28 28 31 31 30 33 34 35 36 36 32 32 29 27 26 28 29 32 33 31 28 25 26 26 25 25 26 26 25 24
11 11 12 13 15 16 19 22 23 23 22 20 20 21 23 28 30 32 33 32 31 32 32 34 30 29 28 28 27 30 29 28 29 32 31 28 26 26 26 25 25 26 26 26 25
11 11 12 13 15 16 18 21 18 20 22 22 22 23 27 29 30 31 33 32 32 32 30 31 29 28 30 30 30 32 30 29 29 32 31 29 27 26 26 26 26 25 25 25 25
10 11 12 13 15 17 17 16 17 18 17 22 24 25 26 27 27 28 32 30 30 29 30 30 28 31 32 32 33 32 31 29 29 31 29 28 27 28 27 26 26 26 25 25 26
10 10 11 13 16 16 14 17 17 17 18 21 24 24 25 27 27 28 30 29 30 28 29 28 30 33 33 32 32 32 30 30 30 32 31 29 28 28 28 28 28 27 26 26 26
10 10 10 12 15 12 14 17 18 17 17 21 23 24 27 27 26 31 31 30 30 29 30 29 32 33 33 32 32 30 33 33 32 30 28 31 26 27 29 28 28 27 27 26 26
10 10 10 10 9 10 15 15 17 19 20 27 26 29 26 27 29 31 32 30 30 30 29 29 31 32 33 34 34 34 34 33 33 31 32 31 28 28 28 28 29 28 28 28 27
10 10 10 11 9 14 13 15 17 18 19 26 29 26 25 27 29 32 31 31 31 30 31 31 33 33 34 35 35 35 35 34 32 29 28 31 29 27 30 30 30 29 29 29 28
9 11 10 10 9 14 13 13 16 16 23 27 29 27 25 25 28 29 30 29 28 28 28 31 31 34 34 33 34 35 34 30 29 28 29 28 30 28 32 33 32 30 30 30 29
9 11 12 12 13 12 12 12 15 19 22 25 26 26 27 27 27 29 28 29 28 29 26 28 29 32 34 33 32 32 35 28 30 29 30 30 31 33 34 34 33 32 31 31 29
10 11 10 14 14 12 9 10 14 17 22 19 24 25 27 29 28 28 28 28 30 27 29 26 28 33 34 35 33 34 32 31 29 29 30 30 33 34 34 34 34 32 32 31 30
9 8 9 15 14 12 9 11 13 17 18 19 20 21 21 21 23 28 26 29 30 30 29 29 29 31 34 34 33 32 33 33 26 31 32 30 33 32 31 33 33 32 32 31 30
9 6 13 15 13 9 9 10 14 17 17 18 17 18 19 21 22 23 27 31 31 31 30 28 27 30 32 32 33 32 32 29 27 27 28 29 30 29 33 34 33 33 33 32 31
7 6 14 13 10 8 10 13 15 16 17 17 18 18 19 20 20 22 24 29 31 32 30 29 25 27 29 33 34 31 31 29 27 30 27 27 29 34 34 33 34 34 34 32 32
4 5 13 13 8 8 10 12 13 15 16 17 18 19 19 18 18 21 25 28 25 32 31 30 27 26 29 30 32 32 31 29 26 25 28 29 30 33 32 33 35 34 34 33 33
4 6 6 6 7 10 9 10 12 15 15 17 18 18 18 18 19 19 22 25 26 30 30 31 25 30 28 31 31 33 33 32 29 27 27 28 31 33 35 32 31 34 34 33 33
4 7 8 6 7 7 8 11 11 12 15 16 16 18 18 17 18 20 22 24 27 28 30 31 30 27 31 32 32 33 33 32 30 30 30 32 31 32 33 31 32 32 34 33 33
6 7 8 7 7 8 10 9 12 14 13 13 15 17 19 18 19 20 21 22 23 25 30 27 28 28 30 30 31 33 33 34 33 30 31 30 32 31 33 32 31 31 32 32 32
8 9 6 7 8 8 9 9 11 11 13 16 16 15 16 19 21 22 22 22 24 23 24 27 32 27 30 31 32 30 31 33 34 34 33 32 31 34 36 34 33 31 31 32 32
Height
818 814 811 808 805 802 799 796 793 791 788 785 781 778 774 770 766 762 759 754 755 755 757 757 757 757 762 761 753 751 791 797 791 788 795 784 788 787 791 798 798 801 806 811 818
819 815 811 808 804 801 797 794 792 789 786 784 781 778 775 769 764 759 752 751 753 754 756 755 755 753 759 758 757 769 794 780 765 772 783 782 781 788 800 805 809 809 812 816 819
821 816 812 807 804 800 797 793 790 787 785 782 780 777 774 771 767 753 749 750 751 753 754 755 753 753 757 751 761 766 783 763 765 761 769 781 786 785 801 812 803 807 812 816 820
821 817 813 809 804 799 795 792 788 785 783 780 778 776 773 772 788 751 750 751 752 752 753 753 753 761 765 761 750 769 757 754 760 761 773 782 783 797 794 798 802 805 812 817 821
821 817 813 808 804 799 795 791 788 784 782 779 777 774 773 774 763 751 750 751 751 751 752 752 758 759 766 757 753 762 761 759 760 764 772 778 790 796 804 803 807 812 816 819 821
820 815 811 806 802 797 793 788 785 783 781 778 776 775 775 782 751 751 751 749 751 751 750 751 754 752 759 760 763 756 758 765 765 771 779 790 800 796 809 807 812 816 818 820 822
819 814 808 803 799 794 789 785 781 779 777 776 775 774 775 760 747 748 749 748 748 749 752 748 749 754 752 761 748 758 773 773 774 774 786 782 809 810 805 808 814 816 817 820 822
818 813 808 802 795 790 784 779 776 774 772 772 772 774 770 746 746 742 743 744 743 744 746 746 745 749 755 753 763 777 788 804 780 776 781 786 829 811 806 808 814 814 816 817 819
817 811 805 800 794 786 779 773 769 767 768 769 771 772 766 742 739 733 737 742 741 739 740 743 743 754 757 778 797 797 814 807 791 771 779 790 819 810 806 809 811 809 811 813 816
816 810 804 798 792 785 774 767 763 763 766 768 770 776 750 741 733 730 731 737 741 741 742 744 755 773 778 788 821 803 805 807 801 777 777 794 804 804 805 807 807 807 808 809 811
817 810 802 796 790 784 773 765 771 769 768 767 763 755 737 736 732 727 728 733 738 744 766 753 778 792 779 770 771 773 787 802 792 771 782 794 799 802 801 804 806 805 806 807 806
817 810 803 794 789 784 782 782 793 797 781 753 749 747 737 743 747 728 729 741 747 764 756 768 784 760 759 760 767 774 783 795 787 771 789 799 806 797 795 797 795 797 801 801 802
816 811 804 794 786 786 785 784 784 781 778 751 739 735 732 736 741 732 730 732 745 761 762 776 760 748 756 767 769 772 784 783 788 777 779 794 811 806 792 791 794 793 793 793 796
816 811 806 796 791 791 784 781 778 778 792 756 737 719 721 728 737 714 720 731 739 755 757 763 744 750 757 769 766 786 755 763 775 795 821 784 840 806 792 793 791 791 791 790 790
816 811 807 805 801 798 789 781 778 776 804 722 716 697 700 718 714 707 708 723 739 744 751 757 748 752 757 757 752 760 748 759 767 786 795 797 821 798 790 797 788 784 783 781 782
815 809 806 802 801 794 789 783 779 798 797 730 702 712 720 715 712 700 709 713 716 738 738 741 724 734 736 734 742 737 753 756 765 793 830 789 802 807 787 772 773 771 773 772 776
813 807 803 801 796 794 790 786 802 805 743 726 712 710 717 721 719 713 717 729 740 760 764 745 740 724 723 746 739 748 768 809 818 824 813 788 796 785 752 749 752 761 764 765 767
809 803 796 793 791 793 793 798 803 767 752 718 714 709 717 712 719 715 723 732 727 735 763 770 774 731 716 735 751 755 755 807 825 821 800 776 795 760 726 729 735 742 745 754 763
804 797 792 785 788 793 802 812 790 773 747 751 730 731 719 706 711 719 724 726 717 726 750 769 763 714 712 714 730 744 766 745 785 785 797 783 754 725 720 733 737 746 750 753 756
803 798 790 786 789 794 809 802 785 766 764 762 761 747 754 747 735 718 726 705 714 708 712 732 760 725 710 711 716 735 726 763 787 805 806 793 772 769 752 742 739 746 745 745 748
805 805 785 785 784 797 809 802 782 762 774 772 773 774 763 755 743 741 713 697 696 703 707 724 742 738 720 730 732 741 747 753 768 786 810 815 792 737 732 729 731 732 730 736 740
811 814 785 784 796 801 797 786 778 772 767 774 770 769 767 760 757 746 725 702 682 688 714 710 744 756 740 706 701 720 734 745 784 783 788 794 783 707 713 718 722 722 723 726 728
817 809 788 786 806 808 797 789 785 776 768 770 765 761 759 766 772 743 718 689 694 683 697 705 738 767 747 729 710 719 722 733 750 764 780 793 775 706 709 712 708 713 716 720 723
819 817 803 798 803 800 804 795 784 770 769 764 763 760 763 762 760 747 730 704 687 681 674 685 727 728 753 728 718 725 718 719 737 773 776 772 748 719 705 712 711 705 706 713 719
819 817 815 817 805 807 806 794 788 780 763 763 760 755 758 763 752 741 727 713 687 674 672 683 713 720 710 709 709 712 714 716 733 737 756 740 744 720 706 705 700 698 701 710 717
821 821 817 813 807 803 797 794 781 771 773 765 761 750 743 746 740 733 724 724 713 687 675 681 708 710 717 708 710 716 707 700 710 722 725 731 731 701 690 690 695 697 700 706 710
817 816 816 809 804 803 796 792 784 781 762 754 751 752 739 728 717 712 710 709 702 706 705 690 685 716 723 706 711 734 710 703 698 695 707 729 715 692 693 697 688 695 695 697 700
Wind_Speed
24 24 23 23 22 22 23 23 22 21 20 22 22 23 24 27 26 15 6 6 3 7 2 3 6 11 8 5 8 3 3 2 7 16 10 13 17 8 9 12 3 7 9 15 25
26 25 24 24 23 22 23 23 23 22 21 22 22 21 22 26 23 11 16 13 12 10 2 5 4 4 1 5 0 5 4 5 6 15 17 18 21 12 7 10 8 12 18 25 21
27 27 27 25 25 23 23 23 24 23 21 22 22 21 21 18 5 7 6 5 8 9 6 7 10 4 4 5 5 2 4 8 20 14 19 18 14 7 16 4 12 22 22 18 19
27 28 29 28 26 25 24 23 23 21 22 22 22 21 18 6 4 1 6 12 6 9 4 3 2 5 3 5 4 6 6 8 5 13 15 15 10 13 4 5 16 18 20 19 13
29 29 30 30 28 26 24 24 22 21 21 21 21 20 7 3 9 16 17 20 14 8 4 2 4 3 2 6 5 3 6 15 20 20 15 15 10 10 14 17 17 19 19 15 13
29 31 32 32 30 28 26 25 22 20 19 18 18 15 2 6 18 20 15 14 15 9 3 4 4 4 8 4 5 2 12 16 18 18 15 20 16 5 15 18 18 17 15 13 13
31 32 34 34 32 29 28 27 23 20 18 16 13 7 3 17 11 12 18 29 22 20 8 12 10 3 7 2 2 5 8 9 16 11 13 18 5 10 18 20 20 18 14 15 16
32 34 36 36 34 31 31 29 24 21 18 13 7 1 8 16 19 24 25 22 22 20 20 22 19 3 1 3 6 5 6 4 3 7 11 5 5 14 16 17 17 17 16 15 13
34 36 38 39 37 33 33 29 26 20 11 5 2 4 10 10 9 24 28 16 16 16 19 15 5 4 3 4 5 8 1 1 0 3 7 2 10 14 16 15 16 16 16 14 14
34 37 39 40 38 37 32 28 9 2 4 2 3 2 8 6 5 12 17 18 7 5 7 1 3 4 3 3 4 4 2 3 3 4 15 5 7 20 19 17 16 14 14 14 16
32 35 39 41 38 32 26 6 7 5 4 7 6 6 9 4 17 7 10 10 4 1 6 4 4 7 10 9 8 8 5 5 4 2 4 2 13 21 18 15 16 15 14 14 15
31 34 37 41 38 13 19 4 5 14 10 9 17 19 35 13 9 14 6 8 6 9 4 2 7 12 9 11 6 12 8 5 5 7 4 7 11 17 20 20 21 20 18 18 15
30 33 36 39 26 9 21 5 28 32 4 7 10 9 8 12 11 19 3 7 7 8 7 8 8 6 8 5 6 1 4 4 6 4 5 10 3 14 18 17 16 17 17 17 18
28 30 34 39 4 29 14 28 31 24 3 7 8 10 9 10 8 12 14 7 6 13 5 7 10 11 9 12 10 6 9 9 7 2 4 8 4 12 17 19 18 18 17 18 18
27 29 30 29 20 12 17 31 33 2 4 5 6 3 8 14 7 9 24 6 15 7 8 10 10 12 14 11 21 16 8 15 15 10 2 5 4 6 10 15 19 19 20 18 20
28 28 30 23 20 13 22 30 6 4 8 6 4 6 9 7 7 2 6 6 7 9 6 13 4 9 14 12 17 7 8 15 6 4 7 16 6 4 12 21 22 20 20 19 18
27 29 31 22 6 21 18 8 3 4 6 6 5 6 6 8 16 6 17 10 10 13 11 5 13 14 6 7 6 14 13 4 3 2 7 9 4 9 23 16 24 24 22 20 19
30 31 29 24 20 13 9 4 4 5 11 7 5 1 11 6 11 8 6 13 6 6 5 10 9 19 7 11 9 8 19 6 7 5 5 6 7 10 27 22 23 25 27 21 20
31 28 22 21 8 5 4 2 7 6 5 12 16 7 5 6 7 12 12 9 14 11 12 8 9 6 13 12 10 8 3 8 7 2 3 4 6 6 17 20 20 20 19 20 21
24 13 13 12 1 8 3 5 5 3 11 7 4 9 8 11 7 19 11 11 7 13 9 5 2 7 7 7 9 8 5 3 3 3 2 5 5 4 10 20 20 20 23 21 20
10 4 8 17 4 4 4 6 7 20 12 10 12 8 6 6 8 7 9 12 21 12 13 6 4 7 5 8 15 1 3 4 6 5 6 2 6 8 17 19 23 24 25 23 23
7 3 10 23 3 1 5 5 8 19 14 11 7 6 12 7 8 5 6 4 14 20 13 11 5 7 12 3 9 9 12 8 5 4 2 5 6 6 14 16 19 23 23 23 24
3 3 9 9 3 3 6 5 5 16 21 7 5 11 13 9 7 10 7 7 21 20 20 12 8 1 6 7 4 6 6 6 6 4 6 5 7 3 8 15 22 23 22 22 23
2 4 4 4 2 3 5 5 7 12 13 10 15 17 17 15 8 10 15 13 19 19 22 17 5 17 10 8 5 4 7 7 8 5 6 7 9 13 6 12 10 20 24 21 21
1 2 3 4 3 4 3 5 9 7 4 9 9 15 16 6 9 14 14 12 16 12 17 17 16 9 21 15 6 5 8 9 7 7 7 9 8 12 6 11 16 19 19 20 19
1 1 2 5 9 4 2 4 9 11 4 13 9 16 10 17 18 10 12 8 10 10 12 9 10 10 16 11 6 11 10 17 12 6 8 8 8 8 6 1 8 16 20 20 19
3 3 1 5 4 2 4 7 12 13 11 9 12 17 15 17 21 21 18 17 16 12 5 6 17 9 16 15 11 7 8 13 13 13 13 11 12 5 6 9 14 10 13 20 20
Wind_Direction
14 11 7 3 359 354 351 349 347 345 345 343 343 342 339 335 331 320 264 254 273 306 223 291 252 253 224 231 227 114 60 291 169 134 125 131 123 123 87 128 145 196 146 142 151
11 8 4 0 357 352 348 345 344 341 340 340 339 339 340 336 329 283 301 281 261 281 337 309 319 329 225 228 161 124 145 228 139 122 148 145 132 125 122 122 104 102 117 142 151
8 6 3 358 353 349 345 341 339 337 335 335 337 336 337 337 322 262 340 344 270 266 275 295 290 299 283 159 170 183 182 122 139 150 138 135 133 114 131 152 176 148 147 153 155
4 2 360 357 353 348 341 336 333 331 330 330 331 333 335 343 274 272 38 350 308 281 283 290 324 326 270 279 172 118 172 125 124 101 138 146 115 126 125 134 146 140 148 153 161
0 358 355 353 350 346 338 330 326 324 324 324 326 331 348 353 248 260 290 315 294 279 214 232 353 311 324 301 127 129 95 91 104 101 118 109 107 101 107 126 135 140 152 162 165
357 355 353 350 347 340 333 327 318 316 315 317 318 324 353 250 264 272 283 299 275 271 202 173 225 261 295 332 56 214 118 132 120 118 127 113 121 103 137 139 144 152 164 171 179
353 352 349 348 345 337 329 321 313 308 306 307 309 321 272 238 260 271 273 288 284 278 281 270 268 118 275 225 157 34 93 88 125 139 118 111 51 119 152 155 159 168 175 178 188
352 349 347 345 343 337 326 316 309 302 296 294 294 190 246 269 279 271 267 276 273 275 257 273 284 187 45 299 42 66 51 96 206 134 156 80 142 152 158 156 163 175 178 184 181
348 346 344 343 342 337 325 313 309 293 283 267 229 169 267 286 243 252 245 240 262 285 285 287 257 141 12 67 22 32 95 69 141 248 173 117 137 173 168 170 173 182 181 188 189
344 343 342 340 340 337 323 323 347 89 122 120 246 348 268 246 241 259 249 223 225 302 332 215 61 110 67 110 181 129 123 214 214 252 163 136 154 167 178 180 183 179 187 190 190
342 342 340 339 338 340 345 10 10 2 17 256 221 256 294 345 318 280 223 173 176 234 224 274 129 208 194 208 178 147 213 149 279 210 129 200 151 175 182 182 188 185 186 195 199
341 341 340 337 338 354 4 46 43 301 289 255 254 248 262 282 302 298 320 160 152 220 168 323 219 216 192 211 198 179 187 212 216 250 102 122 170 187 180 195 192 189 189 196 198
339 340 340 337 342 10 339 345 341 350 256 274 218 233 226 171 230 260 191 182 172 210 198 189 233 168 184 145 214 184 192 202 196 126 137 127 196 197 203 195 198 201 200 196 191
336 338 341 340 22 340 312 330 340 345 340 266 218 241 190 166 273 227 221 199 207 197 192 225 232 228 209 170 172 221 224 230 249 104 246 151 245 209 198 200 198 202 202 204 195
334 334 337 343 311 322 312 329 330 45 300 217 218 198 182 169 164 234 208 209 194 188 156 225 181 209 230 201 181 222 199 220 235 235 20 209 134 249 157 204 203 201 203 204 194
331 330 331 334 314 314 328 320 334 59 240 285 187 163 120 197 210 177 150 181 157 189 227 225 237 199 220 224 187 172 193 247 267 175 202 207 151 259 191 201 197 197 201 198 185
330 324 320 311 264 320 336 351 73 187 305 255 223 160 168 172 198 176 182 182 183 178 207 241 246 254 211 203 159 203 196 240 234 168 215 167 141 224 209 195 191 188 196 197 186
329 323 316 298 296 308 334 60 191 222 256 330 350 317 182 140 212 207 161 201 209 141 142 195 239 227 208 190 181 183 217 181 224 213 258 141 212 247 193 183 187 190 188 186 184
329 328 311 311 328 247 69 131 202 235 323 2 331 286 305 204 154 196 213 214 205 177 181 168 232 249 221 229 143 229 191 197 138 36 51 246 300 336 167 179 183 184 183 185 184
332 321 293 1 6 142 82 247 265 321 5 338 335 21 10 330 4 182 184 219 210 191 179 216 217 236 254 189 225 164 218 236 20 134 222 314 298 203 175 180 185 181 190 190 188
333 343 283 345 83 84 192 225 305 289 330 344 332 314 348 327 355 315 221 226 196 204 183 170 104 262 253 198 220 166 219 37 118 135 164 206 273 201 186 187 181 188 192 186 187
345 330 309 333 32 119 229 194 232 272 292 279 292 274 265 295 302 315 256 257 191 201 196 191 165 233 229 242 201 181 200 167 127 230 152 164 260 268 176 182 197 190 191 190 191
319 258 336 345 36 334 325 320 303 278 269 269 285 313 315 325 324 300 274 323 315 192 196 180 194 32 325 305 285 187 188 150 117 97 186 152 259 126 235 186 194 185 193 191 193
355 344 331 26 317 71 5 295 319 303 300 297 281 265 276 283 242 277 295 303 316 265 188 178 161 207 202 223 156 175 194 168 137 136 165 208 270 291 259 189 172 189 189 189 190
342 342 13 314 326 341 289 264 287 296 283 296 292 255 245 249 284 261 275 300 292 287 197 179 209 179 223 236 239 210 188 190 169 176 161 237 211 260 237 205 174 185 184 185 187
75 7 293 271 271 281 266 286 288 301 333 304 288 296 261 229 227 271 295 295 274 327 209 185 203 164 220 224 213 222 236 203 196 162 199 161 233 217 280 217 132 169 177 181 185
343 321 162 270 288 19 309 332 301 318 288 280 319 309 290 277 239 246 257 259 258 278 281 224 199 163 216 214 238 259 215 222 212 204 184 209 220 155 194 267 166 175 169 179 185